Lapse_Rate
6.9 6.8 6.4 6.4 5.8 6.6 6.9 7.3 7.4 6.8 6.9 6.4 6.0 6.0 5.8 5.8 5.9 5.3 4.8 4.5 4.8 5.6 5.4 5.6 5.5 5.4 5.5 5.4 5.3 5.3 5.2 5.2 5.1 5.3 5.4 5.2 5.2 5.2 5.1 5.0 5.0 5.0 5.0 4.8 4.8 4.9 4.8 4.8 5.0
7.3 6.2 6.6 6.5 6.7 7.9 6.8 7.2 7.1 7.1 6.8 6.5 6.2 5.8 5.6 5.4 5.8 5.2 5.4 5.1 5.0 5.4 5.7 5.7 5.6 5.5 5.5 5.4 5.3 5.3 5.2 5.1 5.1 5.3 5.4 5.4 5.2 5.2 5.0 4.9 4.9 4.8 4.8 4.9 4.9 4.9 4.8 4.6 4.8
7.3 6.9 6.5 7.0 7.0 8.9 7.3 7.5 7.2 6.9 6.5 6.5 6.0 5.8 5.5 5.2 5.6 5.6 5.9 5.5 5.6 5.4 6.0 5.7 5.6 5.5 5.5 5.5 5.3 5.3 5.2 5.0 5.2 5.3 5.5 5.4 5.1 4.9 4.9 4.9 4.7 4.8 5.0 4.8 4.9 4.8 4.8 4.7 4.7
7.3 7.5 7.3 8.0 8.1 7.8 7.6 7.3 6.9 6.9 6.7 6.2 5.8 5.4 5.3 5.3 5.7 5.8 5.4 5.3 5.5 5.6 5.8 5.7 5.6 5.5 5.5 5.4 5.4 5.2 5.2 5.1 5.2 5.3 5.4 5.3 5.0 4.8 4.8 4.8 4.7 4.9 4.9 4.8 5.0 5.1 4.9 4.9 4.9
6.4 6.4 7.8 8.7 7.9 7.3 7.2 7.1 6.7 6.5 6.7 5.9 5.6 5.1 4.9 4.9 4.9 4.9 5.5 5.6 6.4 5.9 6.0 5.8 5.5 5.4 5.6 5.4 5.3 5.2 5.0 5.0 5.0 5.1 5.1 5.1 4.9 4.7 4.8 4.9 5.0 4.9 4.9 4.9 5.0 5.1 5.0 4.9 4.7
7.2 7.2 8.5 8.2 7.2 7.2 7.3 7.1 7.0 6.8 6.6 6.0 5.6 5.2 4.9 4.8 4.8 5.0 5.1 5.5 6.1 6.1 6.1 5.9 5.6 5.4 5.5 5.4 5.3 5.2 5.0 5.1 5.0 5.1 5.0 4.8 4.8 4.7 5.0 5.0 5.0 5.0 5.0 5.0 5.1 5.1 5.0 4.9 4.8
7.3 7.6 8.5 8.4 7.3 7.3 7.3 7.1 6.9 6.8 6.6 6.4 5.9 5.6 5.3 5.0 4.9 4.8 4.8 5.1 5.9 6.0 5.8 5.8 5.7 5.6 5.5 5.4 5.0 5.2 5.2 5.2 5.0 5.2 5.2 4.9 4.8 4.8 5.1 5.0 4.9 5.0 5.1 5.1 5.1 5.1 5.2 5.0 4.6
7.4 6.8 8.0 8.3 7.4 7.1 7.2 7.0 6.8 6.7 6.6 6.3 6.1 5.9 5.4 5.0 4.9 4.6 4.8 5.3 5.7 6.0 6.1 5.8 5.7 5.7 5.6 5.7 5.2 5.2 5.1 5.1 5.1 5.1 5.2 4.8 4.8 4.9 5.1 5.0 4.9 5.0 5.2 5.2 5.1 5.1 5.1 5.0 4.7
7.8 7.5 8.1 8.3 7.5 6.9 7.0 6.9 6.7 6.6 6.6 6.4 6.3 5.7 5.4 5.0 5.1 5.1 4.9 5.1 5.9 6.0 6.0 5.6 5.6 5.6 5.7 5.8 5.5 5.3 5.2 5.1 5.3 5.2 5.2 4.9 5.0 5.0 4.9 5.0 4.8 4.9 5.1 5.2 5.0 5.0 5.0 5.0 4.8
8.1 8.4 8.1 7.9 7.3 7.1 6.9 7.0 6.9 6.6 6.2 5.9 5.6 5.4 5.1 5.2 5.4 5.5 5.2 4.8 5.6 6.0 6.2 5.8 5.4 5.2 5.3 5.5 5.3 5.4 5.3 5.5 5.5 5.4 5.1 5.2 5.2 5.0 5.0 4.9 4.8 5.0 5.2 5.1 5.0 5.2 5.2 5.2 5.1
8.9 8.6 7.7 7.7 7.3 7.1 6.8 6.8 6.9 6.6 6.3 6.0 5.6 5.4 5.4 5.5 5.7 5.6 5.2 5.0 5.3 5.9 6.1 6.0 5.6 5.5 5.4 5.1 5.1 5.5 5.5 5.7 5.6 5.4 5.0 5.2 5.0 5.1 4.7 4.6 4.8 5.1 5.2 5.0 5.2 5.3 5.4 5.4 5.2
8.8 8.1 7.6 7.3 7.2 7.0 7.0 6.5 6.3 6.2 6.3 6.2 5.9 5.7 5.8 5.9 5.8 5.7 5.5 5.2 5.3 5.8 6.2 6.2 5.6 5.4 5.0 5.0 5.0 5.0 5.1 5.3 5.5 5.4 5.3 5.4 5.0 5.4 5.3 5.0 4.7 5.0 5.3 5.2 5.4 5.5 5.3 5.3 5.1
9.2 7.9 7.6 7.5 7.3 7.2 7.1 6.8 6.2 6.4 6.3 6.1 6.1 6.0 5.9 5.8 5.6 5.7 5.5 5.4 5.1 5.4 6.0 5.9 5.6 5.1 5.2 5.1 4.8 5.1 5.2 5.1 5.3 5.2 5.3 5.5 5.2 5.2 4.8 5.2 5.1 5.5 5.0 5.4 5.3 5.3 5.4 5.5 5.5
8.4 8.1 7.7 7.6 7.4 7.3 7.1 7.0 6.7 6.1 6.2 6.0 6.1 6.1 6.0 5.9 5.5 5.8 5.6 5.7 5.4 5.5 5.8 5.8 5.6 5.0 5.2 5.1 5.1 5.3 5.1 5.1 5.0 5.0 5.0 5.1 5.4 5.8 5.3 4.8 5.5 5.1 5.1 5.3 5.3 5.3 5.2 5.3 5.4
8.9 7.9 8.3 7.9 7.7 7.5 7.3 7.0 6.8 6.3 6.3 6.2 6.2 6.2 6.1 5.8 6.0 5.7 5.5 5.6 5.9 5.9 6.3 6.1 5.9 5.6 5.4 5.5 5.2 5.3 5.1 5.5 5.1 5.3 5.2 5.2 5.4 5.6 5.4 5.7 4.6 5.0 5.0 4.9 5.0 5.0 5.3 5.2 5.2
7.7 7.9 8.3 8.3 7.9 7.4 7.5 7.1 7.1 6.7 6.5 6.7 6.5 6.1 6.0 5.9 6.4 5.6 6.1 6.4 5.8 5.7 6.1 5.6 6.0 5.8 5.2 5.2 5.3 5.6 5.3 5.3 5.4 5.3 5.0 4.9 5.3 5.2 5.2 4.8 4.9 4.5 4.9 5.0 5.4 4.9 4.8 5.4 5.4
6.3 6.4 7.3 7.9 7.5 7.4 7.4 7.3 7.0 6.9 6.5 6.5 6.6 6.6 6.3 6.3 6.4 5.6 5.6 5.9 5.8 6.0 6.2 6.3 5.6 5.9 5.3 5.0 5.3 5.2 5.1 5.2 5.2 5.1 5.1 5.5 5.3 5.2 5.4 4.9 4.9 5.1 5.3 5.1 5.2 4.8 4.7 5.3 5.4
6.2 6.4 6.4 8.3 8.1 7.5 7.8 7.3 7.0 7.1 7.0 6.8 6.9 6.8 6.4 6.5 6.1 6.0 6.0 6.1 5.7 6.1 6.1 5.9 5.4 5.6 5.7 5.8 5.7 5.6 5.3 5.3 5.2 4.9 4.9 4.9 5.1 5.2 5.4 5.4 5.5 5.1 5.4 5.5 5.2 5.0 5.2 5.3 5.4
7.1 6.2 6.6 8.6 8.1 8.4 8.0 7.5 7.2 7.2 7.7 7.6 7.5 7.2 6.7 6.8 6.3 5.6 6.1 5.9 5.9 6.2 6.7 5.6 5.4 5.8 5.8 6.1 6.0 5.5 5.3 5.3 5.0 4.9 5.0 5.5 5.7 5.8 5.2 5.5 5.8 5.6 5.6 5.6 5.7 5.5 5.5 5.8 5.8
7.1 7.4 6.9 8.6 8.2 8.5 8.3 7.6 7.4 7.1 7.2 7.5 7.5 7.2 7.2 6.6 6.6 6.3 6.8 6.1 5.9 6.1 6.7 6.5 6.3 6.3 5.9 5.8 5.8 5.6 5.3 5.4 5.5 5.6 5.5 5.4 5.8 5.4 5.7 5.8 6.0 6.1 5.9 5.8 5.8 5.8 5.7 5.7 6.0
8.1 8.0 9.0 8.5 8.5 8.8 9.0 8.3 7.8 7.6 7.7 7.6 7.7 7.3 7.0 5.9 6.6 6.6 6.7 6.3 6.2 6.2 6.5 6.9 6.5 6.3 6.0 6.1 6.1 6.1 5.8 5.6 5.6 6.0 5.4 6.3 5.8 6.0 6.0 6.0 6.1 6.0 5.9 6.0 6.1 5.9 5.8 5.8 5.6
8.7 7.5 8.5 8.6 8.1 8.5 9.0 9.0 8.0 8.0 8.2 8.0 7.9 7.8 7.2 6.3 7.0 6.9 6.7 6.2 6.5 6.4 6.6 6.5 6.6 6.7 6.6 6.5 6.4 6.5 6.6 6.4 6.3 6.4 6.4 6.1 5.9 6.0 6.0 6.2 6.2 6.2 6.1 6.2 6.2 6.1 6.1 6.1 5.9
8.4 8.0 7.7 7.3 8.0 8.1 8.4 7.7 8.0 7.8 7.8 7.9 8.4 8.0 7.5 6.8 7.3 6.9 6.7 6.5 6.4 6.5 6.5 6.5 6.7 6.9 6.7 6.7 7.1 6.4 6.5 6.6 6.8 6.6 6.5 6.5 6.1 6.1 6.5 6.5 6.4 6.4 6.3 6.2 6.2 6.3 6.3 6.2 6.0
8.3 8.3 8.3 8.6 8.1 5.3 6.0 7.5 7.7 7.7 7.7 7.9 8.4 8.0 7.9 7.9 7.1 7.1 7.0 7.0 6.4 6.7 6.6 6.6 6.7 6.8 7.1 6.9 6.8 6.8 6.9 7.2 7.1 6.7 6.8 6.2 6.0 6.2 6.0 6.4 6.4 6.5 6.4 6.3 6.3 6.3 6.2 6.2 5.9
8.5 8.5 8.4 8.6 7.3 5.6 5.5 6.9 7.8 8.4 8.0 8.5 8.6 9.1 7.5 7.5 7.3 7.1 6.7 6.6 6.3 6.6 6.6 6.6 6.7 6.8 6.8 6.8 6.8 6.8 6.8 6.9 6.9 6.5 6.5 6.5 6.2 6.0 6.5 6.6 6.6 6.5 6.5 6.3 6.2 6.0 6.0 6.1 5.7
8.4 7.9 5.6 5.4 5.1 6.7 5.9 6.8 7.9 8.4 8.6 8.5 7.9 9.0 8.4 8.1 7.3 7.2 7.0 6.8 6.7 6.7 6.6 6.9 6.9 7.0 7.0 7.0 6.9 6.9 6.9 6.8 6.5 6.4 6.5 6.5 6.2 5.4 5.8 5.6 6.1 6.0 6.4 6.1 6.0 5.7 6.0 5.9 5.7
7.5 7.4 6.6 6.1 6.3 6.7 6.3 7.9 8.6 8.3 8.6 8.4 8.2 8.3 8.8 8.5 7.9 7.8 7.3 7.2 7.2 7.2 7.1 7.3 7.2 7.2 7.2 7.1 6.9 6.8 6.8 6.7 6.4 6.5 6.4 6.4 6.5 5.9 5.9 5.9 6.1 6.0 6.2 5.9 5.8 5.8 5.8 5.6 5.5
9.0 8.2 6.8 6.4 8.1 5.7 8.7 9.1 8.3 8.2 8.2 8.2 8.2 8.3 8.4 8.2 7.8 7.5 7.1 7.0 7.4 7.3 7.3 7.3 7.2 7.1 7.1 7.0 6.9 6.7 6.7 6.6 6.5 6.4 6.4 6.5 6.4 6.0 5.8 5.9 5.8 5.6 5.6 5.7 5.6 5.4 5.6 5.7 5.8
8.6 8.5 8.4 6.8 7.7 6.1 7.5 9.5 8.3 8.2 8.1 8.2 8.3 8.2 8.2 8.0 7.6 7.4 7.3 7.0 6.6 6.5 7.1 6.9 6.9 6.9 6.8 6.7 6.7 6.6 6.3 6.3 6.4 6.5 6.2 6.1 6.0 5.8 5.8 5.8 5.8 5.8 5.8 5.8 5.7 5.7 5.9 6.0 6.0
9.6 9.6 9.7 8.8 7.3 8.1 6.7 8.6 8.5 8.2 8.1 8.2 8.2 8.0 7.9 7.7 7.6 7.5 7.3 6.9 6.6 6.4 6.7 6.9 6.8 6.7 6.7 6.3 6.0 6.0 6.6 6.5 6.6 6.4 6.0 5.7 5.8 5.9 6.1 6.2 6.0 5.9 5.9 5.8 5.8 5.7 5.8 6.0 6.1
Wind_Speed
12 14 10 8 3 3 11 9 20 13 19 22 23 19 21 19 12 10 8 14 9 15 17 17 17 17 20 23 22 22 20 22 22 21 21 21 19 18 18 17 17 17 17 17 15 13 12 11 10
12 8 6 6 4 3 8 12 18 13 16 20 18 20 21 24 21 14 9 13 11 13 14 17 17 17 21 23 23 22 21 21 21 20 19 19 17 17 18 17 15 16 17 16 16 14 13 11 11
10 9 4 4 2 11 11 8 13 14 13 16 21 23 17 17 17 8 10 12 13 10 17 19 19 19 20 23 23 22 22 20 19 19 19 18 16 17 17 17 15 16 17 18 16 16 14 13 11
6 5 5 1 16 14 13 12 14 12 15 19 18 12 22 20 17 14 10 12 15 10 19 19 20 19 21 22 23 21 22 20 18 17 18 17 16 17 17 17 16 18 19 18 16 14 11 9 7
10 7 6 11 16 13 13 12 14 12 18 21 21 20 17 15 15 17 14 15 17 12 19 19 19 18 20 22 22 21 20 20 18 16 15 14 15 16 18 17 19 19 17 16 14 12 9 7 3
3 2 4 12 15 12 10 12 13 15 15 19 20 19 14 13 14 14 18 15 18 14 18 18 17 17 20 21 21 20 19 18 17 16 15 14 15 15 17 18 18 16 16 13 11 8 5 5 3
5 3 8 14 14 10 13 12 11 11 17 18 19 15 16 13 13 15 13 20 17 17 15 15 18 16 19 23 19 19 18 18 17 18 16 17 16 14 16 18 15 14 13 11 8 6 4 3 3
14 6 10 13 13 13 10 15 15 13 13 17 18 11 15 11 14 14 11 21 17 15 11 11 16 19 20 21 22 20 17 16 18 18 16 13 15 15 15 16 13 12 10 8 6 4 5 7 9
10 4 5 8 17 10 13 12 12 11 12 23 17 21 16 13 13 15 14 20 17 12 14 13 14 17 19 21 22 17 15 17 18 15 12 10 8 11 11 14 12 10 8 7 6 8 11 10 12
4 2 17 14 16 12 10 16 13 15 15 17 18 17 13 14 12 13 15 16 19 15 15 14 15 16 18 17 16 13 10 8 11 13 10 8 7 7 13 13 11 10 9 8 10 13 13 12 13
13 10 18 15 15 15 11 18 15 11 15 15 16 16 13 12 11 13 16 16 19 19 12 15 15 17 15 12 12 6 9 8 12 10 7 4 4 8 10 11 10 10 12 10 13 12 12 12 2
13 15 16 14 11 14 12 21 14 13 15 17 14 14 13 12 12 15 16 15 20 19 18 13 13 13 14 13 9 9 7 6 6 8 8 5 5 8 10 7 11 12 12 12 12 9 3 6 9
13 15 13 15 14 11 12 20 19 16 16 16 14 13 13 14 9 14 14 15 16 18 19 15 13 11 11 10 10 9 8 6 7 6 4 2 5 5 14 9 6 4 8 8 5 6 5 3 7
13 16 12 15 12 11 15 14 18 18 13 14 14 20 12 13 13 13 16 8 16 14 18 18 13 12 14 8 10 6 9 8 5 0 4 5 8 9 5 2 4 7 6 2 2 3 2 4 6
15 13 10 11 10 14 14 17 15 19 18 15 11 8 18 12 16 12 9 13 14 14 13 16 18 15 12 13 12 9 7 9 5 6 7 11 11 13 10 6 5 5 3 2 4 8 7 4 5
24 9 5 11 9 12 6 16 14 16 17 17 19 15 13 13 3 19 19 12 9 13 11 12 15 19 15 11 12 13 13 11 9 9 6 12 14 16 10 4 3 7 6 5 7 2 3 4 3
10 6 15 11 15 13 12 14 13 16 16 17 17 16 14 17 17 18 20 12 15 12 8 9 11 14 11 11 7 15 16 12 14 11 11 13 12 19 13 7 4 16 4 3 2 4 3 5 4
2 17 12 11 11 16 15 14 14 15 17 18 16 18 10 13 17 22 21 18 16 15 7 8 9 15 13 6 7 7 7 10 11 9 9 15 14 18 18 8 8 5 3 3 2 2 4 4 6
27 21 24 15 11 11 15 14 14 14 10 16 13 11 20 14 12 8 19 23 17 17 13 11 4 11 8 9 5 4 5 6 5 9 16 18 19 21 15 5 4 0 1 4 2 2 5 5 5
27 22 27 16 13 9 16 16 13 14 15 13 18 14 14 15 12 17 15 14 15 15 16 15 14 9 5 4 6 3 4 4 8 13 15 21 21 12 8 6 5 4 4 4 4 5 4 4 3
28 29 15 16 10 10 13 16 16 14 17 18 17 19 12 5 18 16 16 13 15 15 13 16 12 12 9 9 5 6 7 3 4 5 8 11 17 14 10 8 5 4 3 6 4 6 4 4 6
4 16 7 15 10 5 9 8 14 13 12 14 17 16 20 15 19 18 17 18 16 14 11 12 13 12 9 9 9 7 6 4 4 6 7 6 13 13 13 12 9 6 3 5 5 6 1 2 5
8 29 18 16 14 9 3 4 14 15 13 10 6 12 19 23 16 20 18 14 16 14 13 12 13 13 11 12 7 9 7 6 5 6 8 6 2 8 10 14 9 6 5 5 6 6 3 2 2
8 14 20 7 6 7 10 5 12 16 17 16 20 18 15 23 19 19 7 18 17 15 15 13 12 13 11 10 8 8 8 7 4 5 4 2 2 6 15 14 7 5 4 5 3 4 5 3 4
8 13 7 11 4 6 10 2 9 22 21 17 18 18 26 19 20 20 17 17 17 16 17 14 13 11 11 10 9 7 7 7 7 5 4 6 5 5 11 12 7 5 6 4 4 3 5 4 4
9 12 6 6 5 3 16 8 9 18 22 20 17 16 19 22 22 20 16 16 16 13 16 16 15 12 11 11 10 8 7 4 6 7 6 4 3 6 9 9 2 3 2 2 3 3 5 4 4
5 5 14 9 15 6 12 18 21 21 18 23 19 16 16 15 18 17 17 14 14 15 13 14 16 14 12 13 9 8 7 8 5 3 6 4 5 7 6 6 9 7 6 4 5 3 4 4 4
21 15 8 6 8 2 11 18 17 20 20 20 21 18 15 19 19 15 15 16 13 14 12 12 15 13 13 13 10 9 9 8 7 4 3 8 10 10 9 8 8 8 6 6 6 4 5 5 4
12 8 8 5 6 6 4 14 20 21 20 21 19 19 20 19 17 15 15 16 15 14 13 10 12 12 11 11 12 11 11 12 4 9 10 8 8 9 9 9 7 7 8 7 5 5 7 6 6
18 16 19 10 7 7 1 7 22 23 22 21 20 20 19 17 16 15 14 14 13 14 14 12 11 12 11 8 6 6 14 13 11 9 9 9 8 8 7 7 8 8 8 8 9 10 9 10 11
Wind_Direction
169 192 205 220 310 226 64 358 66 46 68 78 70 73 65 57 63 99 96 97 95 117 123 113 117 122 129 122 119 114 113 115 113 112 111 109 107 106 111 111 109 120 118 122 123 114 106 105 107
193 195 306 279 259 171 61 344 121 89 56 89 87 83 70 88 92 100 103 90 76 92 113 120 122 128 134 128 122 117 116 114 114 116 114 112 112 111 112 113 107 111 113 112 112 113 114 116 110
254 193 156 276 212 60 115 170 87 76 122 95 78 62 84 84 67 93 102 115 93 74 105 124 126 131 138 132 124 122 118 117 116 120 115 111 112 114 114 114 116 114 116 119 116 115 117 114 114
231 195 251 237 70 55 77 86 101 102 101 99 105 75 69 71 92 99 88 114 92 112 118 128 128 134 141 137 128 126 121 119 117 117 117 118 113 116 115 117 120 115 112 114 116 117 116 114 122
226 264 267 94 73 65 64 63 91 124 74 87 97 95 97 106 112 114 91 97 93 95 117 125 128 135 144 138 130 124 122 118 113 112 112 116 111 115 120 124 117 117 115 112 114 111 114 114 128
314 192 146 83 78 71 91 96 86 80 87 105 107 100 103 95 86 77 100 79 87 103 109 123 126 133 142 139 122 121 115 112 111 110 111 117 117 122 123 120 117 117 116 114 111 112 116 128 129
224 333 24 108 89 76 92 99 105 106 106 104 112 122 108 106 101 83 68 91 82 105 112 126 123 129 128 119 113 112 113 117 115 111 114 114 120 122 120 117 119 121 119 120 120 125 124 161 199
223 85 295 115 100 88 97 91 91 93 91 108 125 134 111 108 112 98 97 91 84 71 103 108 121 119 117 119 106 98 114 116 115 112 116 108 112 113 122 117 127 124 129 132 145 175 202 217 229
44 113 64 80 105 133 103 102 116 149 93 58 102 94 118 137 135 121 103 113 90 76 97 101 94 100 108 104 97 81 91 122 114 112 117 106 101 121 113 122 134 137 152 166 198 222 233 239 252
115 273 153 105 127 118 112 105 109 92 91 89 91 106 138 153 154 126 107 102 98 92 96 103 107 107 103 102 86 70 53 86 115 109 114 125 104 138 139 140 153 168 186 206 221 238 249 253 248
177 100 111 107 114 109 133 113 90 117 119 119 125 133 156 149 130 108 100 94 107 112 100 112 123 127 122 124 126 105 70 50 92 100 117 69 22 322 153 153 174 193 201 215 221 242 241 260 284
106 121 93 105 135 146 132 123 125 112 113 124 127 142 151 140 134 113 104 108 111 117 122 120 114 120 130 142 147 120 81 62 74 107 110 72 13 311 294 210 189 204 187 216 207 247 252 317 283
115 109 127 137 97 122 128 121 138 113 117 123 140 117 118 104 101 102 120 114 115 123 124 111 120 116 130 132 130 137 119 86 78 113 113 123 302 288 271 230 202 248 148 195 159 264 284 269 281
121 128 135 114 143 135 122 126 113 116 133 123 136 142 133 119 104 86 94 97 108 105 111 122 125 134 142 140 133 130 129 120 111 113 205 218 290 315 329 301 273 244 221 21 19 322 300 305 294
113 132 153 127 150 136 147 141 131 140 131 148 80 2 122 121 119 123 128 112 105 116 119 128 134 134 144 149 144 151 140 140 137 247 273 276 299 296 324 328 305 335 51 162 216 248 253 249 264
31 22 170 139 151 133 208 135 144 151 143 146 139 201 93 122 125 114 91 295 128 111 130 153 132 141 147 160 163 152 156 150 183 223 228 254 291 299 298 289 347 273 309 37 323 325 354 278 351
45 250 263 161 150 180 178 144 166 163 156 158 152 131 168 148 191 102 153 188 139 130 139 129 134 119 126 155 148 142 150 153 191 221 221 244 263 275 270 252 242 356 310 35 46 15 10 305 318
275 223 265 172 164 202 149 148 176 181 161 174 167 160 174 161 170 158 164 154 141 141 147 130 121 130 137 150 102 108 131 160 191 234 226 243 252 262 284 282 317 228 333 353 26 338 317 280 283
208 225 254 148 178 171 127 147 179 173 193 125 155 202 137 201 132 358 148 142 148 143 152 112 46 136 145 150 121 116 159 171 203 228 241 249 250 245 244 262 253 12 317 291 301 270 273 283 255
185 219 244 137 193 92 154 155 173 180 177 180 155 192 169 167 132 189 149 145 139 149 154 144 171 140 114 118 138 152 170 208 207 217 230 231 238 259 250 241 280 296 286 256 265 280 268 276 248
192 209 176 147 164 165 181 147 168 192 177 189 174 186 129 171 172 161 139 153 150 149 162 155 159 149 163 167 161 171 181 160 200 226 238 243 230 229 230 231 225 272 282 280 200 236 258 304 311
48 321 265 166 136 211 202 154 175 182 182 183 168 171 139 200 159 153 159 153 153 155 167 156 146 157 180 178 192 171 181 180 214 231 250 221 216 218 232 230 217 227 245 285 270 256 262 228 287
162 233 258 189 157 141 275 25 177 175 192 184 141 124 186 169 158 158 168 149 141 155 160 158 157 164 187 189 202 175 194 201 218 228 239 237 173 228 276 241 225 211 219 241 251 283 298 312 284
183 228 243 196 81 67 283 219 186 175 178 190 165 193 154 146 157 118 255 148 147 154 155 165 171 173 178 189 202 180 191 209 220 225 231 229 245 159 224 260 211 207 246 263 248 270 275 291 262
194 215 251 191 67 193 228 285 223 173 170 177 166 150 141 163 145 150 161 163 148 160 155 157 169 175 177 190 192 200 202 202 202 217 242 196 223 214 208 216 196 203 193 239 269 295 287 272 261
67 121 121 318 279 165 166 230 222 200 167 150 155 162 159 151 150 160 159 148 149 162 159 161 165 176 183 186 189 196 209 207 230 217 239 250 193 218 172 222 100 72 302 354 301 273 285 277 265
28 3 147 123 250 271 177 234 139 154 154 151 159 147 163 151 139 138 141 145 153 163 168 162 163 174 182 183 190 191 199 238 263 210 224 266 18 342 55 317 24 23 17 6 342 306 310 306 316
147 173 114 195 243 142 180 153 144 161 154 166 149 154 164 137 133 147 152 152 158 163 165 163 164 175 185 188 183 192 204 210 240 236 264 18 40 37 30 31 32 28 27 25 5 5 19 352 330
147 175 186 142 251 162 284 154 144 161 160 154 145 154 139 139 138 151 149 152 165 160 160 164 163 171 186 213 178 190 199 195 204 63 60 65 54 41 36 33 36 37 36 27 15 6 26 2 358
246 220 208 220 130 183 103 198 154 164 160 145 156 151 136 139 147 157 141 147 148 154 151 163 172 171 199 173 98 102 70 71 73 64 70 66 67 64 63 57 46 41 33 26 25 47 46 32 36